Location: Del Amo
(33.8464°N, 118.2104°W)
Time: 04:35:45
(UTC+00:00)

S-56A Canister/Altair - Pass Details

Date: 20 September 2024
Orbit: 636 x 2487 km, 38.9° (Epoch: 05 October)

Event Time Altitude Azimuth Distance (km) Brightness Sun altitude
Rises 03:04:55 0° 280° (W) 3,170 12.6 -15.7°
Reaches altitude 10° 03:07:04 10° 286° (WNW) 2,375 11.4 -16.1°
Maximum altitude 03:12:31 56° 5° (N) 1,182 8.5 -17.2°
Enters shadow 03:17:32 22° 75° (ENE) 2,420 9.5 -18.2°
Drops below altitude 10° 03:20:32 10° 82° (E) 3,455 - -18.9°
Sets 03:24:16 0° 86° (E) 4,749 - -19.6°
